Вернуться в каталог

QIANFAN-155

АктивенСвязьPO
NORAD 69114·PAYLOAD·🇨🇳 China

Запущен May 17, 2026 с Wenchang Space Launch Site

Loading…

Ближайшие Пролёты (ближайшие 24 часа)

TLE

СвежийSource: Space-Track

Эпоха: Sep 14, 2026, 22:16 UTC

1 69114U 26108L   26257.92836956  .00000090  00000-0  12026-3 0  9991
2 69114  89.0190  13.0606 0002249 106.5993 253.5405 13.51022805 16565

Отслеживайте QIANFAN-155 в реальном времени с AllMySat

Download on the App Store